Lapse_Rate
6.8 6.7 6.7 6.8 6.8 6.9 6.9 6.6 6.6 6.6 6.4 6.1 5.7 5.3 5.2 5.1 5.0 4.8 4.7 5.1 5.5 5.9 5.9 5.7 6.1 6.6 6.8 6.9 6.9 6.9 6.7 6.4 6.3 6.3 6.3 6.7 6.5 6.5 6.7 6.7 6.4 6.5 6.9 7.0 7.1 7.2 7.3
6.7 6.7 6.8 6.9 7.0 7.0 6.9 6.8 6.7 6.6 6.6 6.3 5.9 5.4 5.2 5.0 5.1 5.0 4.8 5.1 5.3 5.7 5.9 5.8 6.0 6.6 7.0 6.7 7.0 6.9 6.9 6.7 6.3 6.3 6.2 6.3 6.4 6.5 6.5 6.8 6.4 6.6 6.9 7.2 7.4 7.2 7.3
6.8 6.7 6.8 6.8 7.0 7.0 7.0 6.9 6.8 6.7 6.6 6.6 6.2 5.6 5.4 5.0 5.0 5.2 5.1 5.3 5.5 5.9 5.9 5.9 5.9 6.5 6.8 6.8 6.7 6.7 6.9 6.7 6.6 6.5 6.3 6.4 6.5 6.5 6.6 6.4 6.9 7.2 6.9 7.4 7.6 7.8 7.5
6.8 6.7 6.8 6.8 7.0 7.0 7.0 7.0 6.9 6.8 6.6 6.6 6.5 5.8 5.4 5.3 5.2 5.2 5.2 5.4 5.8 6.2 6.3 6.4 6.0 6.4 6.8 6.7 6.5 6.5 6.6 6.5 6.5 6.9 6.8 6.3 6.3 6.6 6.4 6.7 6.7 7.0 7.5 7.7 7.7 7.8 7.6
6.8 6.7 6.8 6.8 7.0 7.1 7.0 6.9 6.9 6.8 6.7 6.7 6.6 6.1 5.6 5.4 5.3 5.4 5.5 5.8 6.0 6.3 6.5 6.5 6.1 6.3 6.8 6.9 6.7 6.5 6.6 6.5 6.6 6.9 6.7 6.4 6.5 6.5 6.8 7.1 7.3 7.8 7.7 8.1 7.8 7.7 7.2
6.8 6.8 6.7 6.8 6.9 7.0 7.0 6.9 7.0 7.0 6.7 6.7 6.7 6.4 5.9 5.6 5.4 5.3 5.6 5.9 6.3 6.5 6.6 6.8 6.3 6.4 6.6 6.8 6.7 7.0 6.9 6.5 6.6 6.6 6.4 6.4 6.7 6.9 7.3 7.7 7.6 7.7 8.3 8.6 7.9 7.5 7.2
6.7 6.8 6.7 6.7 6.8 7.0 7.0 6.9 6.9 7.0 6.9 6.7 6.7 6.6 6.3 5.8 5.6 5.3 5.4 5.8 6.0 6.0 6.6 6.5 6.3 6.2 6.6 6.6 6.6 6.8 6.6 6.8 6.5 6.4 6.2 6.5 6.6 7.0 7.7 8.3 8.6 8.8 8.9 8.1 7.4 7.3 6.8
6.7 6.6 6.7 6.6 6.8 6.9 7.0 7.0 6.9 6.9 6.8 6.8 6.8 6.7 6.6 6.1 5.8 5.5 5.4 5.6 6.0 6.3 6.3 6.5 6.5 6.4 6.4 6.5 6.4 6.2 6.4 6.4 6.3 6.1 6.3 6.5 6.5 6.7 7.4 7.8 8.2 8.8 8.8 8.0 7.6 7.4 7.0
6.7 6.6 6.6 6.6 6.8 6.9 7.0 7.0 6.9 6.8 6.8 6.8 6.8 6.7 6.7 6.4 6.1 5.8 5.7 5.8 6.1 6.4 6.3 6.5 6.8 6.7 6.6 6.2 6.1 6.1 6.2 6.2 6.4 6.5 6.6 6.8 7.4 7.6 8.0 8.1 8.1 8.7 8.6 7.8 7.7 7.2 7.0
6.8 6.6 6.6 6.6 6.8 6.8 7.0 7.0 6.9 6.8 6.7 6.7 6.8 6.7 6.7 6.6 6.4 6.2 5.9 5.8 6.0 6.3 6.2 6.7 6.6 6.8 6.8 6.2 6.2 6.3 6.5 6.6 6.5 6.6 6.6 7.2 7.9 7.8 8.0 8.0 8.0 8.6 8.1 8.1 7.8 7.7 7.4
6.9 6.7 6.6 6.6 6.7 6.8 6.9 7.0 6.8 6.7 6.6 6.7 6.7 6.7 6.7 6.7 6.7 6.4 6.2 6.1 6.0 6.3 6.7 6.9 6.9 7.0 6.8 7.0 7.1 6.8 6.8 6.9 7.0 7.3 7.3 7.5 7.9 7.8 7.8 8.0 8.1 8.3 8.2 7.8 7.7 7.4 7.2
6.8 6.7 6.6 6.6 6.7 6.8 6.9 7.0 6.7 6.6 6.5 6.6 6.7 6.6 6.7 6.7 6.7 6.5 6.3 6.2 6.1 6.3 6.4 6.7 6.9 7.1 6.8 7.1 7.3 7.3 7.2 7.4 7.4 7.4 7.9 7.8 7.9 7.9 8.0 8.1 8.3 8.3 8.1 7.8 7.6 7.5 7.3
6.9 6.8 6.6 6.5 6.6 6.6 6.7 6.9 6.8 6.6 6.4 6.5 6.6 6.5 6.6 6.7 6.7 6.6 6.5 6.5 6.1 5.9 6.0 6.5 6.8 7.2 7.2 7.2 7.3 7.6 7.7 8.0 7.8 7.7 7.7 7.7 7.8 7.9 7.9 7.5 8.1 8.1 7.7 7.8 7.7 7.2 7.7
7.0 6.8 6.7 6.5 6.5 6.6 6.6 6.7 6.7 6.6 6.5 6.5 6.6 6.6 6.6 6.6 6.7 6.7 6.5 6.5 6.0 5.9 6.0 6.4 6.6 6.9 7.0 7.2 7.2 7.5 7.7 7.6 7.9 7.7 7.6 7.6 7.3 7.5 7.5 7.6 7.4 7.2 7.1 7.1 7.5 7.5 7.4
7.0 6.8 6.7 6.6 6.5 6.6 6.6 6.6 6.6 6.6 6.5 6.5 6.6 6.6 6.6 6.6 6.7 6.5 6.5 6.2 5.6 5.6 6.0 6.2 6.5 6.5 6.7 7.1 7.2 6.9 7.5 7.8 7.7 7.6 7.3 7.4 7.1 7.3 7.3 7.5 7.3 7.2 6.9 6.8 6.4 6.7 7.2
6.8 6.8 6.7 6.6 6.5 6.5 6.6 6.6 6.6 6.6 6.4 6.4 6.5 6.6 6.7 6.6 6.7 6.6 6.6 6.0 5.7 5.6 5.7 6.1 5.8 6.4 6.5 6.8 6.6 6.8 6.8 7.2 7.4 7.4 7.3 6.9 6.7 6.8 7.1 7.1 6.9 6.8 6.9 6.7 6.6 6.8 7.4
6.6 6.7 6.7 6.6 6.6 6.5 6.6 6.6 6.6 6.5 6.5 6.4 6.4 6.6 6.5 6.6 6.6 6.8 6.6 6.2 5.9 5.7 5.7 5.7 5.7 5.6 6.1 6.4 6.6 6.8 6.9 7.0 7.1 7.1 7.2 7.1 6.7 6.6 6.5 6.2 5.8 6.1 6.0 6.2 6.1 5.9 7.2
6.5 6.5 6.5 6.6 6.6 6.6 6.5 6.6 6.5 6.5 6.4 6.3 6.3 6.5 6.4 6.5 6.6 6.7 6.5 6.3 6.3 6.1 6.0 5.9 5.8 5.8 5.9 6.2 6.1 6.1 6.4 6.7 6.9 6.9 6.8 7.0 6.8 6.7 6.3 6.6 6.4 6.2 6.0 5.8 5.8 5.9 5.7
6.5 6.7 6.4 6.5 6.5 6.6 6.6 6.5 6.5 6.3 6.5 6.4 6.4 6.4 6.5 6.5 6.4 6.4 6.5 6.5 6.3 6.2 6.3 6.2 6.1 5.9 5.9 6.0 5.8 6.3 6.4 6.5 6.6 6.7 6.7 6.6 6.7 6.8 6.6 6.4 6.3 6.1 6.1 5.9 5.6 5.5 5.7
6.6 6.7 6.6 6.4 6.5 6.5 6.5 6.4 6.5 6.3 6.5 6.4 6.3 6.2 6.4 6.4 6.3 6.3 6.3 6.2 6.2 6.0 5.9 5.8 5.9 5.9 5.9 5.8 5.9 6.1 6.2 6.4 6.4 6.3 6.2 6.4 6.5 6.3 6.9 6.3 6.4 6.4 6.5 6.3 5.7 5.4 6.4
6.4 6.4 6.6 6.6 6.3 6.3 6.4 6.5 6.5 6.5 6.3 6.6 6.3 6.2 6.0 6.2 6.3 6.2 6.2 6.1 6.0 6.0 5.8 5.7 5.6 5.6 5.6 5.7 5.9 5.8 5.8 6.0 6.2 6.2 6.1 6.1 5.7 6.1 6.2 6.1 6.2 6.3 6.1 6.1 6.0 6.0 5.8
6.5 6.5 6.4 6.4 6.4 6.1 6.0 6.2 6.4 6.3 6.3 6.5 6.5 6.1 6.1 6.0 5.9 5.9 5.9 5.9 5.8 5.7 5.6 5.6 5.7 5.5 5.4 5.4 5.3 5.3 5.7 5.7 5.7 5.7 5.6 5.6 5.5 5.7 5.9 6.1 6.0 6.0 6.0 5.9 5.9 5.8 5.6
6.3 6.3 6.4 6.3 6.3 6.2 6.0 6.0 6.1 6.0 5.9 6.1 6.2 6.2 5.8 5.7 5.8 5.6 5.7 5.7 5.7 5.6 5.6 5.5 5.5 5.6 5.7 5.6 5.5 5.5 5.4 5.3 5.2 5.3 5.3 5.2 5.2 4.8 4.8 5.0 5.1 5.5 6.2 6.0 6.1 6.1 5.8
6.2 6.2 6.2 6.0 6.0 6.0 5.9 5.9 5.9 5.5 5.3 5.6 5.7 5.8 5.7 5.5 5.5 5.6 5.5 5.5 5.6 5.5 5.5 5.4 5.4 5.4 5.4 5.5 5.5 5.7 5.9 5.9 5.8 5.7 5.2 4.7 4.4 4.3 4.5 4.7 4.6 5.5 5.7 5.8 5.6 5.5 5.4
6.0 5.8 6.0 5.8 5.9 5.8 5.7 5.4 5.4 5.1 5.0 5.0 5.1 5.4 5.4 5.4 5.4 5.4 5.4 5.4 5.4 5.4 5.4 5.4 5.4 5.3 5.3 5.2 5.2 5.4 5.7 5.7 5.8 5.8 5.6 5.4 4.8 4.4 4.4 4.8 5.5 5.6 5.9 5.7 5.4 5.3 5.5
5.6 5.4 5.5 5.6 5.8 5.6 5.1 5.1 5.0 4.9 4.9 4.9 5.0 5.0 5.3 5.4 5.5 5.3 5.3 5.4 5.4 5.4 5.4 5.4 5.4 5.4 5.3 5.2 5.0 4.8 5.5 5.4 5.3 5.7 5.6 5.6 5.1 4.5 4.0 4.3 5.2 5.7 5.9 5.5 5.0 4.7 5.2
5.0 5.0 5.2 5.3 5.5 5.2 4.7 4.8 4.9 4.9 4.9 4.8 4.9 5.0 5.0 5.1 5.4 5.4 5.4 5.3 5.3 5.1 5.1 5.2 5.3 5.3 5.1 5.1 4.8 4.6 4.9 5.3 5.1 5.1 5.8 5.5 5.0 4.8 4.3 4.1 4.5 5.1 5.4 5.1 4.9 5.0 4.9
5.0 5.1 5.2 5.1 4.9 4.9 5.0 4.9 5.1 4.8 4.7 4.8 4.8 4.9 5.0 5.0 5.1 5.2 5.3 5.3 5.2 5.2 5.0 5.1 5.1 5.4 5.1 4.9 4.7 4.7 4.6 4.8 5.1 5.2 5.4 5.3 5.1 5.0 4.6 4.5 4.3 5.0 4.8 4.7 4.8 4.7 4.7
4.8 4.9 4.9 4.9 5.0 4.8 4.7 4.8 4.9 4.8 4.8 4.8 5.0 4.8 4.9 5.0 5.1 4.9 5.1 5.1 5.1 5.0 4.9 4.9 5.0 5.0 5.0 5.1 5.0 4.7 4.7 4.6 5.0 4.7 5.1 4.7 5.5 5.4 5.1 5.1 5.5 5.1 4.5 4.2 4.3 4.6 4.7
Wind_Speed
11 12 13 15 16 16 16 15 13 12 11 12 12 12 12 13 12 12 11 11 10 9 8 9 6 7 6 2 5 9 12 7 3 3 11 11 11 11 12 15 16 14 15 2 3 5 8
12 13 14 15 16 17 17 17 16 13 12 12 13 12 12 13 12 12 11 11 9 9 7 9 6 8 5 3 9 10 8 4 5 2 6 6 4 9 12 14 13 15 10 5 5 7 6
13 14 15 16 17 18 19 18 16 14 13 12 13 13 13 14 13 12 13 11 10 7 7 6 3 2 14 5 9 8 5 3 5 1 5 3 6 10 6 10 8 13 9 7 6 7 5
13 14 15 16 17 18 19 19 17 15 14 14 14 14 13 15 15 14 13 12 4 5 6 5 5 3 4 4 7 6 4 2 6 6 5 4 5 9 7 5 7 16 11 11 6 6 3
13 14 15 16 18 19 20 19 18 16 15 14 13 14 14 15 16 17 14 2 3 4 2 4 4 3 2 12 3 5 7 3 5 7 6 1 7 6 3 12 11 15 12 17 7 5 4
13 13 14 16 17 19 20 21 20 18 16 15 14 13 14 15 17 15 7 1 1 4 3 3 5 2 4 5 4 3 3 1 1 6 4 6 5 7 9 12 12 16 17 13 11 7 10
13 13 14 15 17 19 20 21 21 20 18 16 15 14 13 14 15 15 7 3 3 4 10 8 10 10 2 2 2 4 4 3 4 7 1 4 7 10 12 11 12 16 17 11 10 3 9
13 14 15 16 18 19 21 22 22 22 20 17 16 15 13 12 13 10 5 3 2 2 2 3 2 3 6 3 5 4 3 1 4 4 9 6 4 3 6 5 8 13 16 12 4 2 4
13 15 15 17 18 20 21 22 24 23 21 20 15 15 15 13 7 2 5 3 0 1 4 2 1 4 3 6 5 4 4 6 3 3 6 2 6 3 4 4 4 4 13 12 11 6 4
13 15 16 17 18 19 21 23 23 24 23 21 16 14 15 11 1 2 2 1 1 1 1 10 4 4 2 2 3 4 4 4 1 3 2 6 3 3 4 5 7 6 8 3 13 13 7
13 15 16 17 18 19 21 23 24 24 23 21 17 15 11 9 2 0 3 1 2 3 3 9 5 1 1 2 1 3 0 2 3 5 2 4 5 8 8 5 10 6 3 6 10 5 6
13 15 16 17 19 20 21 22 23 24 24 21 14 13 8 2 2 3 2 1 3 0 3 3 4 7 3 4 1 5 2 1 3 6 11 4 2 4 6 5 4 8 6 7 5 4 2
12 14 16 17 18 20 21 22 23 24 24 21 10 7 5 3 2 2 1 3 0 4 1 6 4 6 4 6 3 5 6 6 3 4 3 5 5 2 6 3 3 2 7 3 3 2 2
10 13 16 17 18 20 22 23 24 25 24 19 9 5 4 4 3 2 2 3 5 1 2 2 3 5 4 8 4 5 2 4 10 6 1 2 2 6 9 5 4 2 3 2 3 5 4
10 13 15 16 17 19 22 24 25 25 24 17 5 1 1 2 4 3 4 5 1 2 3 5 4 2 3 3 4 3 6 5 7 9 4 1 3 0 2 5 4 2 2 2 1 2 2
10 12 14 15 17 19 21 24 26 27 26 13 2 1 1 5 4 4 2 2 3 2 5 3 4 4 4 5 1 2 5 4 4 7 4 4 2 1 2 2 1 3 2 3 2 2 3
10 11 12 14 17 19 20 23 25 27 28 9 2 2 2 4 2 0 3 3 1 1 3 5 5 4 3 4 4 2 4 3 6 6 4 5 3 3 2 1 5 1 2 1 2 3 2
9 11 10 12 15 18 20 22 23 26 30 4 2 2 2 1 1 2 3 2 0 1 1 1 3 4 5 5 4 2 3 4 6 5 4 5 4 2 1 1 2 3 3 3 3 2 2
10 8 7 9 12 16 19 22 23 23 17 4 5 2 2 1 2 2 3 3 1 2 2 1 1 1 2 4 1 3 3 3 6 5 5 5 1 2 2 3 2 3 1 2 1 2 4
8 8 8 8 11 14 17 20 24 23 17 2 3 2 2 3 2 2 1 1 2 0 1 2 2 2 2 1 2 2 1 1 2 3 4 4 2 4 3 3 1 2 4 4 4 2 2
10 8 9 9 9 12 15 18 23 24 17 3 3 2 3 2 3 3 1 1 1 2 2 2 2 3 3 2 1 1 0 2 2 0 2 3 3 3 5 3 3 5 5 7 10 9 5
11 10 9 8 9 10 12 16 21 27 19 1 2 2 2 0 1 2 2 2 2 1 2 2 3 1 2 3 5 4 3 1 2 2 2 0 1 2 4 1 5 8 11 12 12 13 13
14 12 10 8 8 8 10 12 17 23 17 2 1 2 3 1 1 3 0 2 1 1 2 3 2 2 3 1 3 2 1 2 4 4 2 3 2 2 2 3 8 10 14 15 7 7 10
13 12 12 9 8 7 7 8 12 16 13 3 3 2 3 2 3 1 1 1 2 3 2 1 3 3 3 1 1 2 2 2 3 2 2 3 3 2 3 4 3 2 4 4 10 5 11
17 12 3 9 8 6 6 5 6 9 12 3 2 3 3 4 3 4 4 3 2 3 3 3 2 2 0 2 3 3 3 3 2 1 3 2 3 2 3 3 9 6 4 6 8 6 11
16 16 16 16 18 14 4 4 4 5 7 3 2 1 2 4 2 2 2 1 3 3 3 2 2 1 2 2 2 2 2 3 1 1 1 2 5 4 1 4 4 4 5 1 1 5 10
14 14 15 16 16 16 14 15 5 4 3 3 1 2 2 2 2 1 2 3 1 2 3 1 3 3 2 3 3 4 3 0 3 3 4 3 4 8 7 5 7 8 8 4 3 3 8
9 9 11 11 12 14 12 13 12 12 2 1 1 1 2 2 5 3 2 3 2 3 4 3 2 3 3 4 3 3 3 2 2 1 3 6 5 5 4 5 7 9 6 4 4 4 4
6 4 6 7 8 9 12 11 12 13 13 5 2 2 2 3 3 2 5 8 6 6 3 3 3 1 1 3 2 1 3 2 3 4 3 4 7 3 6 2 2 11 2 5 1 1 4
Wind_Direction
33 27 23 20 13 5 2 360 357 350 337 327 328 331 328 327 331 328 328 315 307 302 320 337 345 327 277 60 29 338 333 337 289 251 216 214 208 208 210 200 179 223 203 216 285 275 251
29 26 21 17 16 9 7 5 1 351 337 328 324 326 324 324 330 326 322 312 292 285 302 336 3 309 272 56 333 338 338 322 19 213 98 64 7 309 280 184 182 203 169 176 199 175 201
24 24 19 16 10 9 7 6 2 354 344 332 326 326 322 322 325 327 324 315 293 270 283 342 13 308 59 12 332 349 345 28 34 46 126 117 333 316 237 152 199 183 164 167 175 168 176
21 20 17 13 11 7 8 7 3 357 349 340 332 328 326 323 323 327 332 312 299 269 278 302 308 323 73 352 314 2 333 114 71 99 86 166 300 292 283 127 170 178 189 177 148 163 176
18 16 11 9 6 4 3 3 0 356 351 346 339 334 329 327 325 332 344 326 40 90 225 270 284 322 24 317 31 17 31 46 107 114 145 203 273 276 209 181 163 185 183 193 151 176 196
12 12 8 5 4 1 360 359 358 356 349 344 340 335 328 325 324 329 347 200 185 167 172 195 10 182 28 358 354 345 41 33 286 131 152 221 246 204 203 189 177 179 187 185 166 167 209
5 7 5 6 2 0 360 357 355 355 349 339 334 331 330 325 323 323 299 239 257 181 44 63 44 81 284 340 315 69 46 10 119 43 130 203 212 186 186 191 305 180 184 167 99 158 207
4 4 1 2 2 359 359 358 355 354 352 342 331 326 328 327 319 317 300 34 50 7 85 135 167 346 14 312 59 80 228 42 55 160 235 174 173 357 334 295 302 163 175 144 113 229 219
8 3 360 359 0 359 357 357 355 354 353 345 332 326 328 329 308 283 76 79 146 245 278 106 285 319 348 334 22 36 334 107 142 344 68 160 53 360 273 206 202 230 172 150 166 166 75
7 3 357 356 356 357 355 354 353 353 352 349 341 332 329 334 207 126 74 107 235 247 197 5 18 53 1 305 345 73 7 338 37 50 104 54 34 356 183 147 322 165 53 149 155 182 159
1 360 357 354 353 352 354 353 351 349 351 346 341 334 327 14 58 291 58 316 260 241 35 341 8 34 34 4 46 120 121 244 25 328 267 30 16 359 59 359 306 97 111 164 175 135 117
355 356 357 353 350 349 350 349 349 346 347 344 340 337 326 268 84 47 351 276 250 94 46 10 346 356 30 61 341 310 343 184 326 81 78 87 63 29 359 360 45 106 141 155 179 148 158
348 351 352 352 348 345 344 344 346 347 346 346 343 347 358 328 33 2 291 222 348 54 276 345 338 342 348 12 5 13 30 48 42 47 19 73 44 40 17 250 85 241 193 159 141 191 99
349 348 344 346 347 343 342 343 346 346 344 343 332 337 40 34 342 300 235 244 61 258 350 357 309 314 29 357 67 350 293 74 47 2 68 128 148 5 353 31 357 5 332 307 146 175 125
341 341 336 338 342 343 341 343 345 345 345 336 315 171 248 23 315 263 256 44 85 4 351 319 281 312 87 45 315 339 44 31 29 11 345 157 97 322 358 29 313 87 252 354 81 79 202
319 324 331 333 337 342 342 342 345 345 345 335 285 266 23 340 305 250 62 83 22 357 329 292 360 347 21 25 344 22 12 26 359 15 343 34 112 58 19 302 109 314 52 255 214 162 148
300 310 324 334 334 339 340 343 345 346 344 327 260 270 69 345 271 285 73 91 88 35 335 325 354 335 20 8 357 58 37 65 2 345 339 347 290 86 307 342 359 164 193 40 311 341 318
291 305 320 334 336 336 340 342 346 348 343 293 297 308 60 307 330 32 65 58 7 141 201 276 301 330 353 356 14 37 28 32 4 334 356 23 319 162 65 90 327 297 330 306 314 75 34
271 293 313 332 337 335 338 341 343 348 360 323 325 312 143 281 27 69 131 135 232 206 207 228 274 355 352 349 310 14 15 37 358 348 2 3 211 174 187 190 193 264 186 322 292 322 233
256 278 298 318 332 331 336 341 342 345 348 292 304 320 57 64 51 13 154 111 174 205 286 308 318 270 285 328 29 34 54 82 356 356 338 301 295 307 339 26 332 212 219 223 253 249 254
240 263 285 305 322 328 333 341 343 346 344 289 7 38 3 349 72 73 282 179 184 216 219 253 226 276 325 301 296 10 3 190 204 64 268 328 306 346 293 285 265 269 254 212 211 228 250
239 254 270 290 304 316 329 343 350 348 344 321 331 313 183 37 300 269 163 192 239 230 248 183 271 70 308 322 345 342 331 332 8 167 314 161 320 291 266 286 268 270 257 243 234 248 260
249 248 251 259 285 306 325 343 352 357 350 16 76 141 282 140 212 272 86 148 174 197 200 299 293 267 255 313 326 356 338 322 337 320 318 296 286 312 261 332 305 268 252 218 215 223 233
245 249 250 251 264 288 311 338 350 8 14 343 23 303 268 220 235 244 172 270 223 224 292 168 251 270 52 34 244 240 227 244 225 201 302 292 276 304 293 289 235 99 69 25 210 248 227
64 57 338 271 261 264 284 316 339 3 9 25 36 336 317 282 292 230 223 231 220 216 240 247 163 40 186 253 273 268 201 229 182 353 238 257 256 252 274 262 301 167 203 177 182 216 207
56 58 50 46 47 44 340 298 330 331 4 333 31 329 309 312 65 351 286 271 280 247 218 183 136 146 212 260 248 267 289 7 172 175 72 236 265 271 236 272 266 67 136 109 206 256 166
59 50 47 40 34 36 30 29 5 311 324 331 8 317 288 285 78 258 283 323 3 298 298 141 162 187 256 222 239 232 236 44 246 225 171 173 210 235 238 259 277 121 138 156 238 72 154
67 59 51 44 33 26 22 25 27 23 288 269 353 242 317 300 288 223 241 221 218 243 272 112 198 185 189 230 248 231 253 154 269 182 193 199 197 212 219 242 262 142 126 222 94 111 145
47 55 49 41 35 22 18 20 16 14 13 201 253 156 239 247 299 219 242 261 267 307 311 199 343 166 246 242 258 299 233 222 260 259 184 230 224 281 221 247 56 184 330 172 163 193 211